Regional Weather Roundup
Issued by NWS

Home | Current Version | Previous Version | Text Only | Print | Product List | Glossary Off
Versions: 1 2 3 4 5 6 7 8 9 10 11 12 13 14 15 16 17 18 19 20 21 22 23 24 25 26 27

000
ASUS43 KDMX 150707
RWRIA

WEATHER ROUNDUP FOR IOWA
NATIONAL WEATHER SERVICE DES MOINES IA
200 AM CDT TUE APR 15 2014

NOTE: "FAIR" INDICATES FEW OR NO CLOUDS BELOW 12,000 FEET WITH NO
SIGNIFICANT WEATHER AND/OR OBSTRUCTIONS TO VISIBILITY.

* - THESE STATIONS ARE NOT NWS STATIONS...THUS NOT UNDER NWS
QUALITY CONTROL.  THEY ALSO DO NOT REPORT WEATHER SUCH
AS PRECIPITATION OR FOG.

IAZ001>003-012>014-020>022-031>034-043>046-150800-
   NORTHWEST IOWA

CITY           SKY/WX    TMP DP  RH WIND       PRES   REMARKS
CARROLL *      PTCLDY    27  19  74 NW7       30.16S WCI  19
CHEROKEE *     CLEAR     23  18  80 N5        30.18R WCI  17
DENISON *      CLEAR     23  19  86 CALM      30.16S
LE MARS *      CLEAR     23  18  80 CALM      30.19S
ORANGE CITY *  CLEAR     25  18  74 N6        30.16F WCI  18
SHELDON *      CLEAR     18  14  86 N6        30.16S WCI   9
SIOUX CITY     CLEAR     26  17  68 N3        30.19S
SPENCER        CLEAR     23  17  78 N9        30.16R WCI  13
STORM LAKE *   CLEAR     23  18  80 N8        30.16R WCI  14
$$

IAZ055>058-069>071-079>083-090>094-150800-
   SOUTHWEST IOWA

CITY           SKY/WX    TMP DP  RH WIND       PRES   REMARKS
ATLANTIC *     PTCLDY    27  23  86 CALM      30.17S
AUDUBON *      CLEAR     21  16  79 CALM      30.16S
CLARINDA *     PTCLDY    27  25  93 CALM      30.19S
COUNCIL BLFS * CLEAR     30  21  69 NW5       30.17S WCI  25
CRESTON *      MOCLDY    28  21  74 NW3       30.16S
HARLAN  *      CLEAR     27  23  86 CALM      30.20F
LAMONI         CLEAR     27  19  72 NW5       30.15S WCI  22
RED OAK *      PTCLDY    28  25  86 CALM      30.18S
SHENANDOAH *   CLEAR     27  25  93 CALM      30.19S
$$

IAZ047>049-059>061-072>074-084-150800-
   CENTRAL IOWA

CITY           SKY/WX    TMP DP  RH WIND       PRES   REMARKS
AMES             N/A     26  19  74 NW6       30.15R WCI  19
ANKENY *       CLEAR     25  19  80 W6        30.15S WCI  18
CHARITON *     PTCLDY    28  21  74 NW6       30.15S WCI  22
DES MOINES     CLEAR     29  17  61 W5        30.16S WCI  24
GRINNELL*      CLEAR     27  19  74 W5        30.12S WCI  21
KNOXVILLE *    CLEAR     27  18  69 W6        30.14S WCI  20
MARSHALLTOWN   CLEAR     26  20  77 W6        30.12S WCI  19
NEWTON *       CLEAR     27  19  74 W6        30.15R WCI  20
PELLA *        CLEAR     27  19  74 NW7       30.15S WCI  19
PERRY *          N/A     27  23  86 W6        30.16S WCI  20
$$

IAZ004>006-015-016-023>025-035-036-150800-
   NORTH CENTRAL IOWA

CITY           SKY/WX    TMP DP  RH WIND       PRES   REMARKS
ALGONA *       CLEAR     25  19  80 NW9       30.15R WCI  15
CLARION *      PTCLDY    25  19  80 NW9       30.13S WCI  15
ESTHERVILLE    CLEAR     22  17  81 NW9       30.15R WCI  12
FORT DODGE *   CLEAR     27  18  69 CALM      30.15S
MASON CITY       N/A     24  16  71 NW12      30.12S WCI  13
FOREST CITY *  CLEAR     27  18  69 NW8       30.11S WCI  18
IOWA FALLS *     N/A     27  19  74 NW8       30.13S WCI  18
$$

IAZ007>011-017>019-026>030-037>042-050>054-066-150800-
   NORTHEAST IOWA

CITY           SKY/WX    TMP DP  RH WIND       PRES   REMARKS
CEDAR RAPIDS   CLEAR     26  18  71 NW10      30.08F WCI  16
CHARLES CITY * CLEAR     27  16  63 NW9       30.10S WCI  17
CLINTON *      CLEAR     25  19  80 NW7       30.09S WCI  17
DECORAH *      CLOUDY    27  16  63 W5        30.05F WCI  21
DUBUQUE        CLEAR     25  17  72 NW7       30.04F WCI  17
MONTICELLO *   CLEAR     27  21  80 NW8       30.07S WCI  18
OELWEIN *      CLEAR    N/A N/A N/A NW12      30.08S
WATERLOO       CLEAR     26  16  65 NW7       30.10S WCI  18
$$

IAZ064-065-067-068-078-150800-
   EAST CENTRAL IOWA

CITY           SKY/WX    TMP DP  RH WIND       PRES   REMARKS
DAVENPORT      CLEAR     29  22  75 NW10      30.07S WCI  20
IOWA CITY      CLEAR     29  19  66 NW8       30.12S WCI  21
MT. PLEASANT * CLEAR     30  18  59 NW8       30.11F WCI  23
MUSCATINE *    CLEAR     30  21  69 NW9       30.11S WCI  22
QUAD CITIES    CLEAR     30  21  69 NW12      30.07S WCI  20
$$

IAZ062-063-075>077-085>089-095>099-150800-
   SOUTHEAST IOWA

CITY           SKY/WX    TMP DP  RH WIND       PRES   REMARKS
BURLINGTON     CLEAR     30  20  66 NW8       30.10S WCI  22
FAIRFIELD *    CLEAR     28  19  69 W8        30.13S WCI  20
FORT MADISON * CLEAR     28  21  74 NW9       30.11S WCI  20
KEOKUK *         N/A     28  21  74 NW7       30.11S WCI  21
OSKALOOSA *      N/A     27  21  80 NW7       30.14S WCI  19
CENTERVILLE *  CLEAR     27  23  86 W5        30.16S WCI  21
OTTUMWA        CLEAR     26  18  71 NW7       30.13S WCI  18
WASHINGTON *   CLEAR     28  19  69 NW9       30.12S WCI  20
$$

ABBREVIATIONS USED IN REMARKS
   TC - TEMPERATURES IN CELSIUS
  WCI - WIND CHILL INDEX
   HX - HEAT INDEX
  VSB - VISIBILITY
$$




USA.gov is the U.S. government's official web portal to all federal, state and local government web resources and services.